{"data":{"norad_id":67073,"intl_designator":"2025-297B","name":"RAISE-4","alt_names":[],"object_type":"PAYLOAD","status":"ACTIVE","operator":null,"country":"JPN","launch_date":"2025-12-14","launch_site_code":"RLLB","launch_vehicle":null,"mission":null,"orbit_class":"UNKNOWN","rcs_meters":null,"size_class":null,"mass_kg":null,"dimensions":null,"purposes":[],"wikipedia_slug":null,"has_3d_model":false,"image_url":null,"decayed_at":null,"tle_current":{"epoch":"2026-05-24T23:48:55.696320Z","epoch_age_seconds":65911,"freshness":"FRESH","line1":"1 67073U 25297B   26144.99231130  .00003000  00000+0  19432-3 0  9997","line2":"2 67073  97.5091 293.5468 0013894 114.5119 245.7560 15.08813762 24398","mean_motion":15.08813762,"eccentricity":0.0013894,"inclination_deg":97.5091,"raan_deg":293.5468,"arg_perigee_deg":114.5119,"mean_anomaly_deg":245.756,"bstar":0.00019432,"rev_number":2439,"period_min":95.43921431968,"perigee_km":530.21177475301,"apogee_km":549.43540363826,"semimajor_km":6917.9605891956,"source":"CELESTRAK","updated_at":"2026-05-25T13:38:06.703854Z"}}}